logo
Search for airport 
image banner adimage banner adimage banner ad
image banner ad

ZYTX - Shenyang/Taoxian

Located in Shenyang, China

ICAO - ZYTX, IATA - SHE

Data provided by Airmate  

General information

Coordinates: N41°38'30" E123°29'6"
Elevation is 200 feet MSL.
 
Rated:
View ratings:
[VIEW]
View others Airports in Liaoning Province

Operational data

Special qualification required
Current time UTC:
Current local time:
Weather
METAR: ZYTX 220900Z 18005MPS 9999 OVC033 21/14 Q1008 NOSIG
TAF: TAF ZYTX 220305Z 2206/2306 20009G14MPS CAVOK TX29/2206Z TN18/2223Z BECMG 2220/2221 18004MPS BECMG 2223/2224 -TSRA SCT030CB BKN033 TEMPO 2300/2304 2000 TSRA BECMG 2303/2304 34005MPS -RA BKN033
View NOTAMs / SUP AIP / TFR affecting this airport [VIEW]
Communications frequencies: [VIEW]

Runways:

RWY identifierQFULength (ft)Width (ft)SurfaceLDA (ft)
0648°10499148CON
24228°10499148CON

Airport contact information

Address: Shenyang China

Satellite view of ZYTX